Location: Unspecified
(0.0000°N, 0.0000°E)
Time: 19:56:04
(UTC+00:00)

NOAA 18 - Visible Passes

Search period start: 12 December 2018 00:00
Search period end: 22 December 2018 00:00
Orbit: 841 x 861 km, 99.1° (Epoch: 12 December)

Date Brightness Start Highest point End Pass type
(mag) Time Alt. Az. Time Alt. Az. Time Alt. Az.
12 Dec 6.8 20:02:54 10° SSE 20:04:47 22° SSE 20:04:47 22° SSE visible
13 Dec 6.9 19:51:24 10° SSE 19:53:01 20° SSE 19:53:01 20° SSE visible
14 Dec 7.0 19:40:01 10° SE 19:41:13 16° SE 19:41:13 16° SE visible
14 Dec 8.0 21:22:35 10° SW 21:23:14 12° SW 21:23:14 12° SW visible
15 Dec 7.2 19:28:48 10° SE 19:29:26 13° SE 19:29:26 13° SE visible
15 Dec 7.7 21:09:53 10° SSW 21:11:27 16° SW 21:11:27 16° SW visible
16 Dec 7.4 20:57:34 10° SSW 20:59:40 20° SW 20:59:40 20° SW visible
17 Dec 7.1 20:45:28 10° S 20:47:53 24° SSW 20:47:53 24° SSW visible
18 Dec 6.8 20:33:31 10° S 20:36:06 27° SSW 20:36:06 27° SSW visible
19 Dec 6.6 20:21:42 10° S 20:24:18 29° S 20:24:18 29° S visible
20 Dec 6.5 20:10:01 10° SSE 20:12:31 28° SSE 20:12:31 28° SSE visible
21 Dec 6.6 19:58:26 10° SSE 20:00:43 26° SSE 20:00:43 26° SSE visible
